Location: Unspecified
(0.0000°N, 0.0000°E)
Time: 14:37:59
(UTC+00:00)

CUTE-I - Pass Details

Date: 18 December 2019
Orbit: 811 x 824 km, 98.7° (Epoch: 13 August)

Event Time Altitude Azimuth Distance (km) Brightness Sun altitude
Rises 18:40:08 0° 188° (S) 3,350 ? -10.0°
Reaches altitude 10° 18:42:46 10° 199° (SSW) 2,417 ? -10.6°
Maximum altitude 18:47:18 28° 257° (WSW) 1,488 ? -11.6°
Drops below altitude 10° 18:51:49 10° 315° (NW) 2,414 ? -12.6°
Sets 18:54:28 0° 327° (NNW) 3,344 ? -13.3°
